Quillayute, WA
on Tuesday, January 22, 2013

Tuesday
Previous Day Next Day
Daily Summary
 ActualAverageRecord
Temperature
Mean Temperature °F 42°F  
Max Temperature 49°F 48°F 63°F (1981)
Min Temperature 27°F 36°F 12°F (1969)
Degree Days
Heating Degree Days 27 23  
Month to date heating degree days 518  
Since 1 July heating degree days 2996  
Cooling Degree Days 0 0  
Month to date cooling degree days 0  
Year to date cooling degree days 0  
Moisture
Dew Point 32°F   
Average Humidity 79    
Maximum Humidity 96    
Minimum Humidity 52    
Precipitation
Precipitation 0.04 in 0.46 in 4.36 in (2005)
Month to date precipitation 10.66  
Year to date precipitation 10.66  
Wind
Wind Speed 3 mph   
Max Wind Speed 12 mph   
Max Gust Speed 16 mph   
Visibility 5 miles   
Events Rain   

Key: T is trace of precipitation, MM is missing value
Source: NWS Daily Summary
Time(PST)TemperatureDew PointHumidity Pressure Visibility Wind DirectionWind SpeedGust SpeedPrecipitationEvents Conditions
12:53 AM 28.0°F 26.1°F 92% 30.09 in 5.0 miles Calm Calm - N/A   Clear
1:53 AM 30.0°F 28.0°F 92% 30.07 in 6.0 miles Calm Calm - N/A   Clear
2:53 AM 32.0°F 28.9°F 88% 30.06 in 6.0 miles ENE 5.8 mph - N/A   Clear
3:53 AM 30.9°F 28.0°F 89% 30.04 in 6.0 miles East 3.5 mph - N/A   Clear
4:53 AM 28.0°F 26.1°F 92% 30.04 in 6.0 miles Calm Calm - N/A   Clear
5:53 AM 30.9°F 28.0°F 89% 30.03 in 6.0 miles East 5.8 mph - N/A   Clear
6:53 AM 30.9°F 28.0°F 89% 30.01 in 6.0 miles Calm Calm - N/A   Clear
7:53 AM 34.0°F 30.0°F 85% 30.01 in 6.0 miles East 6.9 mph - N/A   Clear
8:53 AM 34.0°F 30.0°F 85% 30.00 in 5.0 miles East 6.9 mph - N/A   Clear
9:53 AM 35.1°F 32.0°F 89% 30.00 in 5.0 miles Calm Calm - N/A   Clear
10:53 AM 39.0°F 30.9°F 73% 30.01 in 5.0 miles East 6.9 mph - N/A   Haze
11:53 AM 44.1°F 30.0°F 58% 29.98 in 5.0 miles East 9.2 mph - N/A   Haze
12:53 PM 46.0°F 32.0°F 58% 29.95 in 5.0 miles East 5.8 mph - N/A   Haze
1:53 PM 48.9°F 32.0°F 52% 29.94 in 5.0 miles Calm Calm - N/A   Haze
2:53 PM 48.0°F 34.0°F 58% 29.91 in 5.0 miles East 5.8 mph - N/A   Haze
3:53 PM 46.9°F 35.1°F 63% 29.90 in 5.0 miles Calm Calm - N/A   Haze
4:53 PM 45.0°F 34.0°F 65% 29.90 in 5.0 miles Calm Calm - N/A   Haze
5:53 PM 41.0°F 35.1°F 79% 29.89 in 6.0 miles Calm Calm - N/A   Haze
6:53 PM 42.1°F 33.1°F 70% 29.88 in 6.0 miles East 4.6 mph - N/A   Haze
7:53 PM 39.0°F 35.1°F 86% 29.89 in 6.0 miles Calm Calm - N/A   Overcast
8:53 PM 37.9°F 36.0°F 93% 29.90 in 6.0 miles Calm Calm - N/A   Overcast
9:53 PM 42.1°F 36.0°F 79% 29.89 in 6.0 miles Calm Calm - 0.00 in Rain Light Rain
10:53 PM 39.9°F 37.9°F 93% 29.89 in 5.0 miles NNE 5.8 mph - 0.01 in Rain Light Rain
11:53 PM 39.0°F 37.9°F 96% 29.90 in 3.0 miles Calm Calm - 0.02 in Rain Light Rain
Moon Phase
Jan. 22 Jan. 26 Feb. 03 Feb. 10 Feb. 17
Sunrise:07:56 AM (PST) Moon Rise:01:27 PM (PST)1/22
Sunset:05:03 PM (PST) Moon Set:04:26 AM (PST)1/22

Copyright © 2014 The Weather Underground, Inc.